This is the latest recevied weather packets stored in our database for station/object K7KAZ. If no packets are shown the sender has not sent any weather packets the latest 10 day(s).
| Time | Temp. | Humidity | Pressure | Rain* | Wind** | Luminosity | Snow |
|---|---|---|---|---|---|---|---|
| 1777826264 | 27.78° C | 31% | 1014.9 hPa | 0 mm | - | 440 W/m² | - |
| 1777825963 | 27.78° C | 30% | 1014.7 hPa | 0 mm | - | 344 W/m² | - |
| 1777825659 | 27.78° C | 31% | 1015 hPa | 0 mm | - | 308 W/m² | - |
| 1777825358 | 27.78° C | 31% | 1014.7 hPa | 0 mm | - | 322 W/m² | - |
| 1777825054 | 27.78° C | 31% | 1014.9 hPa | 0 mm | - | 289 W/m² | - |
| 1777824750 | 27.78° C | 31% | 1014.8 hPa | 0 mm | - | 299 W/m² | - |
| 1777824447 | 27.22° C | 31% | 1014.8 hPa | 0 mm | - | 230 W/m² | - |
| 1777824143 | 27.22° C | 31% | 1014.7 hPa | 0 mm | - | 208 W/m² | - |
| 1777823839 | 27.22° C | 31% | 1014.6 hPa | 0 mm | - | 228 W/m² | - |
| 1777823537 | 27.22° C | 32% | 1014.8 hPa | 0 mm | - | 185 W/m² | - |
| 1777823234 | 27.22° C | 31% | 1014.7 hPa | 0 mm | - | 206 W/m² | - |
| 1777822931 | 27.22° C | 31% | 1014.6 hPa | 0 mm | - | 257 W/m² | - |
| 1777822629 | 26.67° C | 32% | 1014.8 hPa | 0 mm | - | 203 W/m² | - |
| 1777822327 | 26.67° C | 32% | 1014.7 hPa | 0 mm | - | 180 W/m² | - |
| 1777822024 | 27.22° C | 32% | 1014.7 hPa | 0 mm | - | 174 W/m² | - |
| 1777821722 | 26.67° C | 32% | 1014.4 hPa | 0 mm | - | 164 W/m² | - |
| 1777821419 | 26.67° C | 32% | 1014.6 hPa | 0 mm | - | 185 W/m² | - |
| 1777821116 | 26.67° C | 32% | 1014.6 hPa | 0 mm | - | 176 W/m² | - |
| 1777820813 | 26.67° C | 32% | 1014.5 hPa | 0 mm | - | 160 W/m² | - |
| 1777820509 | 26.67° C | 32% | 1014.5 hPa | 0 mm | - | 159 W/m² | - |
| 1777820206 | 26.67° C | 32% | 1014.5 hPa | 0 mm | - | 147 W/m² | - |
| 1777819903 | 26.67° C | 33% | 1014.4 hPa | 0 mm | - | 124 W/m² | - |
| 1777819600 | 26.67° C | 32% | 1014.3 hPa | 0 mm | - | 122 W/m² | - |
| 1777819298 | 26.11° C | 32% | 1014.4 hPa | 0 mm | - | 111 W/m² | - |
| 1777818994 | 26.11° C | 32% | 1014.4 hPa | 0 mm | - | 102 W/m² | - |
* Rain latest hour (hover to see other rain measurements)
** Current wind speed in m/s (hover to see current wind gust speed)